SR9WXY Weather Reports


time (UTC)temp
C
wind
direction
speed
KPH
gust
KPH
rain 1hr
cm
rain 24hr
cm
rain mn
cm
humidity
%
barometer
mb
20260508012940 4 0 0.0 0.0 0.00 0.00 0.00 27 880.4
20260508012440 4 0 0.0 0.0 0.00 0.00 0.00 27 880.4
20260508011940 4 0 0.0 0.0 0.00 0.00 0.00 28 880.4
20260508011440 4 0 0.0 0.0 0.00 0.00 0.00 28 880.4
20260508010940 5 0 0.0 0.0 0.00 0.00 0.00 28 880.4
20260508010439 5 0 140.0 204.4 0.00 0.00 0.00 28 880.3
20260508005939 5 202 252.7 252.7 0.00 0.00 0.00 28 880.3
20260508005439 5 0 244.6 252.7 0.00 0.00 0.00 28 880.4
20260508004939 5 185 189.9 204.4 0.00 0.00 0.00 28 880.4
20260508004439 5 20 128.7 204.4 0.00 0.00 0.00 28 880.5
20260508003939 5 317 6.4 16.1 0.00 0.00 0.00 28 880.6
20260508003428 5 0 0.0 3.2 0.00 0.00 0.00 28 880.7
20260508002928 5 0 0.0 0.0 0.00 0.00 0.00 28 880.7
20260508002428 6 0 0.0 0.0 0.00 0.00 0.00 29 880.7
20260508001928 6 0 0.0 0.0 0.00 0.00 0.00 29 880.6
20260508001429 6 0 0.0 0.0 0.00 0.00 0.00 29 880.7
20260508000926 6 0 0.0 0.0 0.00 0.00 0.00 29 880.7
20260508000427 6 0 0.0 0.0 0.00 0.00 0.00 29 880.7
20260507235926 6 0 0.0 0.0 0.00 0.00 0.00 29 880.7
20260507235426 6 0 0.0 0.0 0.00 0.00 0.00 29 880.6
20260507234927 6 0 0.0 0.0 0.00 0.00 0.00 29 880.6
20260507234427 6 0 0.0 0.0 0.00 0.00 0.00 28 880.6
20260507233927 6 0 0.0 0.0 0.00 0.00 0.00 28 880.5
20260507233425 6 0 0.0 0.0 0.00 0.00 0.00 28 880.5
20260507232926 6 0 0.0 0.0 0.00 0.00 0.00 28 880.6
20260507232426 6 0 0.0 0.0 0.00 0.00 0.00 28 880.6
20260507231925 6 0 0.0 0.0 0.00 0.00 0.00 28 880.7
20260507231425 6 0 0.0 0.0 0.00 0.00 0.00 28 880.7
20260507230925 6 0 0.0 0.0 0.00 0.00 0.00 29 880.7
20260507230425 6 0 0.0 0.0 0.00 0.00 0.00 29 880.7
20260507225925 6 0 0.0 0.0 0.00 0.00 0.00 29 880.7
20260507225425 6 270 22.5 64.4 0.00 0.00 0.00 29 880.6
20260507224925 6 0 0.0 0.0 0.00 0.00 0.00 29 880.6
20260507224423 6 0 0.0 0.0 0.00 0.00 0.00 28 880.6
20260507223923 6 0 0.0 0.0 0.00 0.00 0.00 28 880.6
20260507223423 6 0 0.0 0.0 0.00 0.00 0.00 28 880.6
20260507222923 6 0 0.0 0.0 0.00 0.00 0.00 28 880.7
20260507222423 6 0 0.0 0.0 0.00 0.00 0.00 29 880.6
20260507221921 6 0 0.0 0.0 0.00 0.00 0.00 28 880.6
20260507221421 6 0 0.0 0.0 0.00 0.00 0.00 29 880.6
20260507220921 6 0 0.0 0.0 0.00 0.00 0.00 29 880.6
20260507220412 6 0 0.0 0.0 0.00 0.00 0.00 29 880.6
20260507215912 6 0 0.0 0.0 0.00 0.00 0.00 29 880.6
20260507215412 6 0 0.0 0.0 0.00 0.00 0.00 29 880.5
20260507214912 6 0 0.0 0.0 0.00 0.00 0.00 28 880.6
20260507214411 6 0 0.0 0.0 0.00 0.00 0.00 28 880.6
20260507213911 6 0 0.0 0.0 0.00 0.00 0.00 28 880.5
20260507213411 6 0 0.0 0.0 0.00 0.00 0.00 28 880.6
20260507212912 6 0 0.0 0.0 0.00 0.00 0.00 28 880.6
20260507212412 6 0 0.0 0.0 0.00 0.00 0.00 28 880.5
20260507211912 6 0 0.0 0.0 0.00 0.00 0.00 28 880.5
20260507211411 6 0 0.0 0.0 0.00 0.00 0.00 28 880.4
20260507210912 6 0 0.0 0.0 0.00 0.00 0.00 28 880.4
20260507210412 6 0 0.0 0.0 0.00 0.00 0.00 28 880.4
20260507205912 6 0 0.0 0.0 0.00 0.00 0.00 28 880.4
20260507205409 6 0 0.0 0.0 0.00 0.00 0.00 28 880.4
20260507204909 6 0 0.0 0.0 0.00 0.00 0.00 28 880.3
20260507204410 6 0 0.0 0.0 0.00 0.00 0.00 28 880.3
20260507203910 6 0 0.0 0.0 0.00 0.00 0.00 28 880.2
20260507203410 6 0 0.0 0.0 0.00 0.00 0.00 28 880.2
20260507202907 6 0 0.0 0.0 0.00 0.00 0.00 28 880.2
20260507202407 6 0 0.0 0.0 0.00 0.00 0.00 28 880.2
20260507201907 6 0 0.0 0.0 0.00 0.00 0.00 28 880.2
20260507201407 6 0 0.0 0.0 0.00 0.00 0.00 28 880.4
20260507200907 6 0 0.0 0.0 0.00 0.00 0.00 28 880.4
20260507200407 6 0 0.0 0.0 0.00 0.00 0.00 28 880.3
20260507195907 6 0 0.0 0.0 0.00 0.00 0.00 28 880.3
20260507195407 6 0 0.0 0.0 0.00 0.00 0.00 28 880.2
20260507194907 6 0 0.0 0.0 0.00 0.00 0.00 28 880.1
20260507194408 6 0 0.0 0.0 0.00 0.00 0.00 28 880.1
20260507193908 6 0 0.0 0.0 0.00 0.00 0.00 28 880.1
20260507193359 6 0 0.0 0.0 0.00 0.00 0.00 28 880.1
20260507192859 6 0 0.0 0.0 0.00 0.00 0.00 28 880.1
20260507192359 6 0 0.0 0.0 0.00 0.00 0.00 28 880.1
20260507191859 6 0 0.0 0.0 0.00 0.00 0.00 28 880.0
20260507191359 6 0 0.0 0.0 0.00 0.00 0.00 28 880.0
20260507190859 6 0 0.0 0.0 0.00 0.00 0.00 28 879.9
20260507190357 6 0 0.0 0.0 0.00 0.00 0.00 28 880.0
20260507185357 6 0 0.0 0.0 0.00 0.00 0.00 28 879.9
20260507184857 6 0 0.0 0.0 0.00 0.00 0.00 28 879.8
20260507184357 6 0 0.0 0.0 0.00 0.00 0.00 28 879.8
20260507183855 6 0 0.0 0.0 0.00 0.00 0.00 28 879.8
20260507183355 6 0 0.0 0.0 0.00 0.00 0.00 28 879.7
20260507182855 6 0 0.0 0.0 0.00 0.00 0.00 28 879.7
20260507182610 6 0 0.0 0.0 0.00 0.00 0.00 28 879.6
20260507182355 6 0 0.0 0.0 0.00 0.00 0.00 28 879.6
20260507181855 6 0 0.0 0.0 0.00 0.00 0.00 28 879.6
20260507181354 6 0 0.0 0.0 0.00 0.00 0.00 27 879.5
20260507180854 6 0 0.0 0.0 0.00 0.00 0.00 27 879.5
20260507180354 6 0 0.0 0.0 0.00 0.00 0.00 27 879.5
20260507175855 6 0 0.0 0.0 0.00 0.00 0.00 27 879.5
20260507175355 6 0 0.0 0.0 0.00 0.00 0.00 27 879.5
20260507174855 6 0 0.0 0.0 0.00 0.00 0.00 27 879.7
20260507174354 6 0 0.0 0.0 0.00 0.00 0.00 27 879.7
20260507173854 6 0 0.0 0.0 0.00 0.00 0.00 27 879.7
20260507173355 6 0 0.0 0.0 0.00 0.00 0.00 27 879.7
20260507172855 6 0 0.0 0.0 0.00 0.00 0.00 27 879.7
20260507172355 6 0 0.0 0.0 0.00 0.00 0.00 27 879.7
20260507171854 6 0 0.0 0.0 0.00 0.00 0.00 27 879.7
20260507171341 6 0 0.0 0.0 0.00 0.00 0.00 27 879.7
20260507170841 6 0 0.0 0.0 0.00 0.00 0.00 27 879.7
20260507170342 7 0 0.0 0.0 0.00 0.00 0.00 27 879.6
20260507165842 7 0 0.0 0.0 0.00 0.00 0.00 28 879.7
20260507165342 8 0 0.0 0.0 0.00 0.00 0.00 28 879.6
20260507164842 8 0 0.0 0.0 0.00 0.00 0.00 29 879.5
20260507164342 8 0 0.0 0.0 0.00 0.00 0.00 29 879.4
20260507163842 8 0 0.0 0.0 0.00 0.00 0.00 28 879.2
20260507163342 8 0 0.0 0.0 0.00 0.00 0.00 28 879.2
20260507162842 8 0 0.0 0.0 0.00 0.00 0.00 28 879.2
20260507162342 8 0 0.0 0.0 0.00 0.00 0.00 28 879.2
20260507161842 8 0 0.0 0.0 0.00 0.00 0.00 99 879.2
20260507161342 8 0 0.0 0.0 0.00 0.00 0.00 99 879.2
20260507160842 8 0 0.0 0.0 0.00 0.00 0.00 99 879.2
20260507160340 8 0 0.0 0.0 0.00 0.00 0.00 98 879.3
20260507155340 8 0 0.0 0.0 0.00 0.00 0.00 97 879.2
20260507154840 8 0 0.0 0.0 0.00 0.00 0.00 96 879.2
20260507154340 8 0 0.0 0.0 0.00 0.00 0.00 96 879.3
20260507153838 8 0 0.0 0.0 0.00 0.00 0.00 96 879.2
20260507153329 8 0 0.0 0.0 0.00 0.00 0.00 95 879.2
20260507152828 8 0 0.0 0.0 0.00 0.00 0.00 95 879.2
20260507152328 8 0 0.0 0.0 0.00 0.00 0.00 94 879.2
20260507151829 8 0 0.0 0.0 0.00 0.00 0.00 94 879.2
20260507151329 8 0 0.0 0.0 0.00 0.00 0.00 93 879.2
20260507150829 8 0 0.0 0.0 0.00 0.00 0.00 93 879.2
20260507145829 8 0 0.0 0.0 0.00 0.00 0.00 92 879.1
20260507145329 8 0 0.0 0.0 0.00 0.00 0.00 92 879.2
20260507144829 9 0 0.0 0.0 0.00 0.00 0.00 92 879.2
20260507144329 8 0 0.0 0.0 0.00 0.00 0.00 91 879.1
20260507143829 8 0 0.0 0.0 0.00 0.00 0.00 90 879.1
20260507143328 8 0 0.0 0.0 0.00 0.00 0.00 89 879.1
20260507142829 8 0 0.0 0.0 0.00 0.00 0.00 89 879.0
20260507142328 8 0 0.0 0.0 0.00 0.00 0.00 88 879.0
20260507141828 8 0 0.0 0.0 0.00 0.00 0.00 86 879.1
20260507140826 7 0 0.0 0.0 0.00 0.00 0.00 83 879.2
20260507140326 8 0 0.0 0.0 0.00 0.00 0.00 81 879.2
20260507135826 8 0 0.0 0.0 0.00 0.00 0.00 81 879.2
20260507135326 8 0 0.0 0.0 0.00 0.00 0.00 80 879.3
20260507134824 8 0 0.0 0.0 0.00 0.00 0.00 80 879.3
20260507134324 8 0 0.0 0.0 0.00 0.00 0.00 80 879.3
20260507133824 8 0 0.0 0.0 0.00 0.00 0.00 80 879.3
20260507133324 8 0 0.0 0.0 0.00 0.00 0.00 79 879.3
20260507132824 8 0 0.0 0.0 0.00 0.00 0.00 79 879.4
20260507132324 8 0 0.0 0.0 0.00 0.00 0.00 79 879.5
20260507131825 8 0 0.0 0.0 0.00 0.00 0.00 78 879.5
20260507130825 8 0 0.0 0.0 0.00 0.00 0.00 77 879.4
20260507130315 8 0 0.0 0.0 0.00 0.00 0.00 76 879.3
20260507125815 9 0 0.0 0.0 0.00 0.00 0.00 75 879.3
20260507125316 10 0 0.0 0.0 0.00 0.00 0.00 74 879.3
20260507124816 10 0 0.0 0.0 0.00 0.00 0.00 73 879.3
20260507124316 10 0 0.0 0.0 0.00 0.00 0.00 73 879.3
20260507123816 10 0 0.0 0.0 0.00 0.00 0.00 73 879.2
20260507123316 10 0 0.0 0.0 0.00 0.00 0.00 73 879.2
20260507122816 10 0 0.0 0.0 0.00 0.00 0.00 73 879.1
20260507122314 10 0 0.0 0.0 0.00 0.00 0.00 72 879.1
20260507121814 11 0 0.0 0.0 0.00 0.00 0.00 72 879.1
20260507121314 11 0 0.0 0.0 0.00 0.00 0.00 72 879.1
20260507120814 11 0 0.0 0.0 0.00 0.00 0.00 71 879.1
20260507120314 12 0 0.0 0.0 0.00 0.00 0.00 71 879.0
20260507115811 12 0 0.0 0.0 0.00 0.00 0.00 71 879.0
20260507115312 13 0 0.0 0.0 0.00 0.00 0.00 71 878.9
20260507114812 13 0 0.0 0.0 0.00 0.00 0.00 71 878.9
20260507114312 12 0 0.0 0.0 0.00 0.00 0.00 71 878.9
20260507113811 12 0 0.0 0.0 0.00 0.00 0.00 71 879.0
20260507113311 12 0 0.0 0.0 0.00 0.00 0.00 71 879.0
20260507112811 12 0 0.0 0.0 0.00 0.00 0.00 72 878.9
20260507112311 12 0 0.0 0.0 0.00 0.00 0.00 72 879.0
20260507111811 12 0 0.0 0.0 0.00 0.00 0.00 72 879.0
20260507111311 12 0 0.0 0.0 0.00 0.00 0.00 72 879.0
20260507110811 12 0 0.0 0.0 0.00 0.00 0.00 72 879.1
20260507110312 11 0 0.0 0.0 0.00 0.00 0.00 73 879.0
20260507105812 11 0 0.0 0.0 0.00 0.00 0.00 73 879.0
20260507105312 11 0 0.0 0.0 0.00 0.00 0.00 73 879.0
20260507104812 11 0 0.0 0.0 0.00 0.00 0.00 72 878.9
20260507104312 12 0 0.0 0.0 0.00 0.00 0.00 72 878.9
20260507103812 12 0 0.0 0.0 0.00 0.00 0.00 73 878.8
20260507103301 12 0 0.0 0.0 0.00 0.00 0.00 73 878.8
20260507102801 12 0 0.0 0.0 0.00 0.00 0.00 73 878.8
20260507102301 12 0 0.0 0.0 0.00 0.00 0.00 73 878.8
20260507101801 12 0 0.0 0.0 0.00 0.00 0.00 73 878.8
20260507101301 11 0 0.0 0.0 0.00 0.00 0.00 74 878.7
20260507100758 11 0 0.0 0.0 0.00 0.00 0.00 74 878.8
20260507100257 11 0 0.0 0.0 0.00 0.00 0.00 74 878.8
20260507095757 11 0 0.0 0.0 0.00 0.00 0.00 74 878.7
20260507095257 11 0 0.0 0.0 0.00 0.00 0.00 74 878.7
20260507094757 11 0 0.0 0.0 0.00 0.00 0.00 74 878.6
20260507094257 11 0 0.0 0.0 0.00 0.00 0.00 73 878.6
20260507093757 11 0 0.0 0.0 0.00 0.00 0.00 73 878.6
20260507093257 11 0 0.0 0.0 0.00 0.00 0.00 73 878.6
20260507092757 12 0 0.0 0.0 0.00 0.00 0.00 73 878.5
20260507092257 12 0 0.0 0.0 0.00 0.00 0.00 73 878.4
20260507091757 12 0 0.0 0.0 0.00 0.00 0.00 73 878.4
20260507091257 12 0 0.0 0.0 0.00 0.00 0.00 73 878.4
20260507090757 12 0 0.0 0.0 0.00 0.00 0.00 73 878.3
20260507090257 12 0 0.0 0.0 0.00 0.00 0.00 73 878.2
20260507085757 12 0 0.0 0.0 0.00 0.00 0.00 73 878.2
20260507085257 12 0 0.0 0.0 0.00 0.00 0.00 73 878.1
20260507084757 12 0 0.0 0.0 0.00 0.00 0.00 73 878.0
20260507084255 12 0 0.0 0.0 0.00 0.00 0.00 73 878.0
20260507083755 12 0 0.0 0.0 0.00 0.00 0.00 73 877.9
20260507082755 12 0 0.0 0.0 0.00 0.00 0.00 74 877.7
20260507082255 11 0 0.0 0.0 0.00 0.00 0.00 74 877.5
20260507081753 11 0 0.0 0.0 0.00 0.00 0.00 74 877.5
20260507081253 11 0 0.0 0.0 0.00 0.00 0.00 74 877.4
20260507080753 11 0 0.0 0.0 0.00 0.00 0.00 74 877.4
20260507080244 11 0 0.0 0.0 0.00 0.00 0.00 75 877.4
20260507075744 10 0 0.0 0.0 0.00 0.00 0.00 75 877.3
20260507075243 10 0 0.0 0.0 0.00 0.00 0.00 75 877.4
20260507074744 10 0 0.0 0.0 0.00 0.00 0.00 76 877.1
20260507074243 10 0 0.0 0.0 0.00 0.00 0.00 76 877.1
20260507073743 10 0 0.0 0.0 0.00 0.00 0.00 76 877.0
20260507073243 10 0 0.0 0.0 0.00 0.00 0.00 76 877.0
20260507072743 10 0 0.0 0.0 0.00 0.00 0.00 76 876.9
20260507072243 10 0 0.0 0.0 0.00 0.00 0.00 76 876.8
20260507071743 10 0 0.0 0.0 0.00 0.00 0.00 76 876.7
20260507071243 10 0 0.0 0.0 0.00 0.00 0.00 76 876.7
20260507070743 10 0 0.0 0.0 0.00 0.00 0.00 76 876.7
20260507070243 10 0 0.0 0.0 0.00 0.00 0.00 76 876.6
20260507065743 10 0 0.0 0.0 0.00 0.00 0.00 76 876.6
20260507064741 10 0 0.0 0.0 0.00 0.00 0.00 76 876.6
20260507064241 10 0 0.0 0.0 0.00 0.00 0.00 76 876.6
20260507063741 10 0 0.0 0.0 0.00 0.00 0.00 76 876.6
20260507062239 10 0 0.0 0.0 0.00 0.00 0.00 76 876.5
20260507061739 10 0 0.0 0.0 0.00 0.00 0.00 77 876.5
20260507060739 9 0 0.0 0.0 0.00 0.00 0.00 77 876.4
20260507060240 9 0 0.0 0.0 0.00 0.00 0.00 77 876.3
20260507055739 9 0 0.0 0.0 0.00 0.00 0.00 77 876.3
20260507055239 8 0 0.0 0.0 0.00 0.00 0.00 77 876.3
20260507054739 9 0 0.0 0.0 0.00 0.00 0.00 77 876.4
20260507054239 9 0 0.0 0.0 0.00 0.00 0.00 77 876.4
20260507053739 9 0 0.0 0.0 0.00 0.00 0.00 77 876.3
20260507053230 9 0 0.0 0.0 0.00 0.00 0.00 77 876.3
20260507052738 9 0 0.0 0.0 0.00 0.00 0.00 77 876.4
20260507052230 9 0 0.0 0.0 0.00 0.00 0.00 77 876.3
20260507051730 9 0 0.0 0.0 0.00 0.00 0.00 77 876.3
20260507051230 8 0 0.0 0.0 0.00 0.00 0.00 77 876.3
20260507050730 8 0 0.0 0.0 0.00 0.00 0.00 77 876.3
20260507050228 8 0 0.0 0.0 0.00 0.00 0.00 77 876.3
20260507045728 8 0 0.0 0.0 0.00 0.00 0.00 77 876.1
20260507045228 8 0 0.0 0.0 0.00 0.00 0.00 77 875.9
20260507044728 8 0 0.0 0.0 0.00 0.00 0.00 77 875.8
20260507044229 8 0 0.0 0.0 0.00 0.00 0.00 77 876.0
20260507043726 8 0 0.0 0.0 0.00 0.00 0.00 77 876.0
20260507043226 8 0 0.0 0.0 0.00 0.00 0.00 77 876.0
20260507042726 8 0 0.0 0.0 0.00 0.00 0.00 77 876.1
20260507042226 8 0 0.0 0.0 0.00 0.00 0.00 77 876.1
20260507041726 8 0 0.0 0.0 0.00 0.00 0.00 77 876.2
20260507041225 8 0 0.0 0.0 0.00 0.00 0.00 77 876.2
20260507040726 8 0 0.0 0.0 0.00 0.00 0.00 77 876.2
20260507040226 8 0 0.0 0.0 0.00 0.00 0.00 77 876.1
20260507035726 8 0 0.0 0.0 0.00 0.00 0.00 76 876.0
20260507035226 8 0 0.0 0.0 0.00 0.00 0.00 76 876.0
20260507034725 8 0 0.0 0.0 0.00 0.00 0.00 76 876.0
20260507034225 8 0 0.0 0.0 0.00 0.00 0.00 76 875.9
20260507033726 8 0 0.0 0.0 0.00 0.00 0.00 76 875.9
20260507033226 8 0 0.0 0.0 0.00 0.00 0.00 76 875.7
20260507032726 8 0 0.0 0.0 0.00 0.00 0.00 76 875.5
20260507032226 8 0 0.0 0.0 0.00 0.00 0.00 75 875.4
20260507031726 8 0 0.0 0.0 0.00 0.00 0.00 75 875.4
20260507031224 8 0 0.0 0.0 0.00 0.00 0.00 75 875.3
20260507030724 8 0 0.0 0.0 0.00 0.00 0.00 75 875.2
20260507030214 8 0 0.0 0.0 0.00 0.00 0.00 75 875.1
20260507025714 8 0 0.0 0.0 0.00 0.00 0.00 75 874.9
20260507025215 8 0 0.0 0.0 0.00 0.00 0.00 75 874.9
20260507024712 8 0 0.0 0.0 0.00 0.00 0.00 74 874.9
20260507024212 8 0 0.0 0.0 0.00 0.00 0.00 74 874.9
20260507023712 8 0 0.0 0.0 0.00 0.00 0.00 74 875.2
20260507023212 8 0 0.0 0.0 0.00 0.00 0.00 74 875.1
20260507022712 8 0 0.0 0.0 0.00 0.00 0.00 74 875.3
20260507022212 8 0 0.0 0.0 0.00 0.00 0.00 74 875.3
20260507021712 8 0 0.0 0.0 0.00 0.00 0.00 74 875.5
20260507021212 8 0 0.0 0.0 0.00 0.00 0.00 74 875.3
20260507020712 8 0 0.0 0.0 0.00 0.00 0.00 74 875.3
20260507020212 8 0 0.0 0.0 0.00 0.00 0.00 74 875.2
20260507015712 8 0 0.0 0.0 0.00 0.00 0.00 74 875.3
20260507015212 8 0 0.0 0.0 0.00 0.00 0.00 74 875.3
20260507014712 8 0 0.0 0.0 0.00 0.00 0.00 74 875.2
20260507014212 8 0 0.0 0.0 0.00 0.00 0.00 74 875.2
20260507013712 8 0 0.0 0.0 0.00 0.00 0.00 74 875.1